Regional Weather Roundup
Issued by NWS Charleston, SC

Current Version | Previous Version | Graphics & Text | Print | Product List | Glossary On
Versions: 1 2 3 4 5 6 7 8 9 10 11 12 13 14 15 16 17 18 19 20 21 22 23 24 25 26 27 28 29 30 31 32 33 34 35 36 37 38 39 40 41 42 43 44 45 46 47 48 49 50
000
ASUS42 KCHS 251725
RWRCHS

REGIONAL WEATHER ROUNDUP
NATIONAL WEATHER SERVICE CHARLESTON SC
1200 PM EST SUN JAN 25 2015

NOTE: "FAIR" INDICATES FEW OR NO CLOUDS BELOW 12,000 FEET WITH NO
SIGNIFICANT WEATHER AND/OR OBSTRUCTIONS TO VISIBILITY.

NOT ALL STATIONS ARE QUALITY CONTROLLED BY THE NATIONAL
WEATHER SERVICE. USE DATA WITH CAUTION...ESPECIALLY
DEWPOINT OBSERVATIONS.

SCZ027-030-031-034>040-042>050-251800-
...SOUTHEAST SOUTH CAROLINA...

CITY           SKY/WX    TMP DP  RH WIND       PRES   REMARKS
N CHARLESTON   MOSUNNY   52  33  48 CALM      30.00F
WATERFRONT PRK   N/A     52 N/A N/A NE3         N/A
MOUNT PLEASANT FAIR     N/A N/A N/A CALM      29.99F
PINOPOLIS      NOT AVBL
MONCKS CORNER  FAIR      54  36  50 SE3       29.98F
SUMMERVILLE    FAIR      54  36  50 S5        29.98F
BEAUFORT MCAS  MOSUNNY   54  34  46 SW3       30.00F
BEAUFORT ARPT  FAIR      54  37  54 SW6       29.99F
HILTON HEAD IS SUNNY     55  36  47 SW5       30.02F
WALTERBORO     SUNNY     54  30  40 CALM      29.98F
ALLENDALE      FAIR      54  34  47 CALM      29.96F

...SOUTHERN MIDLANDS AND PEE DEE...

CITY           SKY/WX    TMP DP  RH WIND       PRES   REMARKS
GEORGETOWN     NOT AVBL
KINGSTREE      NOT AVBL
ORANGEBURG     SUNNY     52  32  46 CALM      29.97F
BARNWELL       FAIR      55  34  44 CALM      29.96F
AIKEN          FAIR      55  32  41 SW8       29.95F
MANNING        NOT AVBL
COLUMBIA       SUNNY     52  34  50 S5        29.95F
SUMTER         SUNNY     53  33  46 S7        29.94F
FLORENCE       SUNNY     54  33  45 SE7       29.96F
MYRTLE BEACH   SUNNY     52  32  46 CALM      30.01F
N MYRTLE BEACH SUNNY     52  28  39 VRB3      29.98F

$$

GAZ063-065-086>088-099>101-113>116-118-119-134>141-150-251800-
...SOUTHEAST GEORGIA...

CITY           SKY/WX    TMP DP  RH WIND       PRES   REMARKS
SAVANNAH ARPT  MOSUNNY   55  32  41 W6        30.00F
HUNTER AAF     SUNNY     56  35  45 VRB5      29.98F
FORT STEWART   SUNNY     55  34  44 SW3       29.99F
STATESBORO     SUNNY     55  33  43 W6        29.98F
SYLVANIA       SUNNY     55  36  48 SW3       29.98F
CLAXTON        FAIR      55  37  50 W7        29.99F

...CSRA...CENTRAL AND FAR SOUTHEAST GEORGIA...

CITY           SKY/WX    TMP DP  RH WIND       PRES   REMARKS
THOMSON        SUNNY     57  37  47 S6        29.97F
AUGUSTA-BUSH   SUNNY     55  30  38 SW7       29.95F
AUGUSTA-DANIEL SUNNY     54  30  40 S6        29.95F
SWAINSBORO     FAIR      57  18  21 SW12      29.97F
VIDALIA        SUNNY     55  34  44 SW3       29.99F
EASTMAN        FAIR      56  35  44 SW7       29.99F
HAZLEHURST     FAIR      57  35  42 SW3       29.98F
ALMA           SUNNY     55  33  43 S6        30.01F
WAYCROSS       SUNNY     59  36  41 SW6       30.02F
JESUP          FAIR      59  36  41 W3        30.01F
BAXLEY         FAIR      55  32  41 W5        29.99F
BRUNSWICK      SUNNY     55  34  44 W7        30.03F
SAINT SIMONS   SUNNY     55  34  45 SW7       30.03F

$$

SCZ027-028-034-036>038-045-046-048>050-GAZ119-141-251800-
...LAKE AND SUPPLEMENTAL COASTAL OBSERVATIONS...

STATION/POSITION TIME  TEMP    WIND        PRES    WAVE   SWELL
                       AIR SEA DIR/SP/G            HT/PER HT/PER/DIR
                 (UTC) (F)     (DEG/KT/KT) (MB)    (FT/S) (FT/S/D)
UPR LAKE MARION  NOT AVBL
WINYAH BAY       1700   50     130/  4     1015.0S
LAKE MURRAY      1600   47     180/  5/  6 1014.2F
ACE BASIN NERRS  1700   54     290/  1     1016.0S
FORT PULASKI     1700   51 53  270/  2/  3 1016.4F
SAPELO ISLAND    1700   55     250/  3     1016.0F

$$

ANZ835-935-AMZ111-154-330-350-352-354-370-450-454-472-251800-
...C-MAN AND BUOY OBSERVATIONS...

STATION/POSITION TIME  TEMP    WIND        PRES    WAVE   SWELL
                       AIR SEA DIR/SP/G            HT/PER HT/PER/DIR
                 (UTC) (F)     (DEG/KT/KT) (MB)    (FT/S) (FT/S/D)
BUOY 41004       1700   53 69  320/  6/  8 1015.7F   3/ 6   3/ 6
BUOY 41008       1700   49 55  310/  4/  6 1016.8F   1/ 3
FOLLY BEACH CMAN 1700   50     160/  3/  4 1016.3F
CAPERS NEARSHORE 1600   52     260/  2/  4   N/A
FRIPP NEARSHORE  1600   50     270/  4/  6   N/A


STATION/POSITION TIME  TEMP    WIND        PRES    WAVE   SWELL
                       AIR SEA DIR/SP/G            HT/PER HT/PER/DIR
                 (UTC) (F)     (DEG/KT/KT) (MB)    (FT/S) (FT/S/D)
5E ST. MARYS GA  1700      59                N/A     1/10
FRYING PAN BUOY  1700   51 66   40/  4/  6 1015.8F   5/ 8   5/180/ 8
BUOY 41025       1700   47 69  340/  6/ 12 1014.3F   5/10   5/140/10
CAPE LOOKOUT NC  1700   49     280/  4/  5 1014.8F
BUOY 41002       1553   64 72  280/ 12/ 14 1015.0F   9/ 8   8/290/ 8
BUOY 41010       1700   65 76  300/  4/  8 1016.9F   5/ 8   5/340/ 8
ST AUGUSTINE FL  1700   55     230/  5/  8 1018.3F


$$



USA.gov is the U.S. government's official web portal to all federal, state and local government web resources and services.